Terminal Aerodrome Forecast
Issued by NWS Albany, NY

Current Version | Previous Version | Text Only | Print | Product List | Glossary On
Versions: 1 2 3 4 5 6 7 8 9 10 11 12 13 14 15 16 17 18 19 20 21 22 23 24 25 26 27 28 29 30 31 32 33 34 35 36 37 38 39 40
923 FTUS41 KALY 041310 AAA TAFALB TAF AMD KALB 041310Z 0413/0512 14007KT 6SM -RA BR FEW015 OVC028 TEMPO 0413/0416 3SM RA BR BKN015 OVC025 FM042100 01005KT 5SM BR VCSH SCT005 OVC012 FM050300 01005KT 2SM -DZ BR BKN008 OVC015=

USA.gov is the U.S. government's official web portal to all federal, state and local government web resources and services.